When you browse on this site, cookies collect data to enhance your experience and personalize the content and advertising you see.
Visit our Privacy Policy to learn more. By continuing to use the site, you agree to this use of cookies and data.
  • In Germany
  • List of Countries
  • For 7 days
  • Water Temperature
  • Weather Map
  • Weather Widgets
  • user-avatar
    Login

    Hourly Weather Khulna

    Today, 31 May, Sunday

    Time Temperature Precipitation Wind Pressure Humidity
    00:00 +30°C° 0 mm 2 mps 754 mmHg 76%
    01:00 +30°C° 0 mm 2 mps 754 mmHg 78%
    02:00 +30°C° 0 mm 2 mps 754 mmHg 79%
    03:00 +29°C° 0 mm 2 mps 754 mmHg 80%
    04:00 +29°C° 0 mm 2 mps 754 mmHg 81%
    05:00 +29°C° 0 mm 2 mps 755 mmHg 82%
    06:00 +29°C° 0 mm 2 mps 755 mmHg 83%
    07:00 +31°C° 0 mm 2 mps 755 mmHg 76%
    08:00 +34°C° 0 mm 3 mps 756 mmHg 69%
    09:00 +35°C° 0 mm 3 mps 756 mmHg 62%
    10:00 +37°C° 0 mm 3 mps 756 mmHg 55%
    11:00 +39°C° 0 mm 3 mps 755 mmHg 48%
    12:00 +41°C° 0 mm 4 mps 755 mmHg 41%
    13:00 +42°C° 0 mm 3 mps 754 mmHg 39%
    14:00 +42°C° 0 mm 3 mps 753 mmHg 37%
    15:00 +42°C° 0 mm 3 mps 752 mmHg 35%
    16:00 +41°C° 0 mm 4 mps 752 mmHg 40%
    17:00 +40°C° 0 mm 5 mps 752 mmHg 46%
    18:00 +38°C° 0 mm 6 mps 752 mmHg 51%
    19:00 +36°C° 0 mm 6 mps 752 mmHg 59%
    20:00 +34°C° 0 mm 6 mps 753 mmHg 67%
    21:00 +32°C° 0 mm 5 mps 753 mmHg 75%
    22:00 +32°C° 0 mm 5 mps 753 mmHg 77%
    23:00 +32°C° 0 mm 5 mps 754 mmHg 79%

    Tomorrow, 1 June, Monday

    Time Temperature Precipitation Wind Pressure Humidity
    00:00 +30°C° 0 mm 5 mps 754 mmHg 81%
    01:00 +30°C° 0 mm 5 mps 754 mmHg 80%
    02:00 +32°C° 0 mm 5 mps 754 mmHg 79%
    03:00 +32°C° 0 mm 5 mps 753 mmHg 78%
    04:00 +32°C° 0 mm 4 mps 754 mmHg 79%
    05:00 +32°C° 0 mm 4 mps 754 mmHg 79%
    06:00 +31°C° 0 mm 3 mps 754 mmHg 79%
    07:00 +33°C° 0 mm 4 mps 754 mmHg 73%
    08:00 +35°C° 0 mm 4 mps 754 mmHg 66%
    09:00 +36°C° 0 mm 5 mps 755 mmHg 59%
    10:00 +39°C° 0 mm 5 mps 755 mmHg 52%
    11:00 +40°C° 0 mm 5 mps 754 mmHg 45%
    12:00 +42°C° 0 mm 5 mps 754 mmHg 39%
    13:00 +42°C° 0 mm 6 mps 753 mmHg 40%
    14:00 +41°C° 0 mm 7 mps 753 mmHg 42%
    15:00 +41°C° 0 mm 7 mps 752 mmHg 44%
    16:00 +39°C° 0 mm 7 mps 752 mmHg 50%
    17:00 +38°C° 0 mm 7 mps 751 mmHg 55%
    18:00 +36°C° 0 mm 7 mps 751 mmHg 61%
    19:00 +34°C° 0 mm 6 mps 752 mmHg 66%
    20:00 +33°C° 0 mm 6 mps 752 mmHg 71%
    21:00 +32°C° 0 mm 6 mps 753 mmHg 76%
    22:00 +32°C° 0 mm 5 mps 753 mmHg 76%
    23:00 +32°C° 0 mm 4 mps 753 mmHg 76%

    Day after tomorrow, 2 June, Tuesday

    Time Temperature Precipitation Wind Pressure Humidity
    00:00 +31°C° 0 mm 3 mps 753 mmHg 76%
    01:00 +31°C° 0 mm 3 mps 753 mmHg 77%
    02:00 +32°C° 0 mm 4 mps 752 mmHg 78%
    03:00 +32°C° 0 mm 4 mps 752 mmHg 79%
    04:00 +32°C° 0 mm 4 mps 752 mmHg 79%
    05:00 +32°C° 0 mm 5 mps 752 mmHg 79%
    06:00 +32°C° 0 mm 5 mps 752 mmHg 78%
    07:00 +34°C° 0 mm 5 mps 753 mmHg 73%
    08:00 +35°C° 0 mm 6 mps 753 mmHg 67%
    09:00 +36°C° 0 mm 6 mps 753 mmHg 61%
    10:00 +39°C° 0 mm 6 mps 753 mmHg 54%
    11:00 +41°C° 0 mm 7 mps 753 mmHg 47%
    12:00 +43°C° 0 mm 7 mps 752 mmHg 41%
    13:00 +44°C° 0 mm 7 mps 752 mmHg 40%
    14:00 +44°C° 0 mm 7 mps 751 mmHg 39%
    15:00 +44°C° 0 mm 7 mps 750 mmHg 39%
    16:00 +42°C° 0 mm 6 mps 750 mmHg 44%
    17:00 +40°C° 0 mm 6 mps 749 mmHg 49%
    18:00 +39°C° 0 mm 6 mps 749 mmHg 54%
    19:00 +36°C° 0 mm 6 mps 750 mmHg 62%
    20:00 +35°C° 0 mm 7 mps 750 mmHg 70%
    21:00 +33°C° 0 mm 7 mps 751 mmHg 77%
    22:00 +33°C° 0 mm 6 mps 751 mmHg 78%
    23:00 +33°C° 0 mm 6 mps 751 mmHg 78%

    3 June, Wednesday

    Time Temperature Precipitation Wind Pressure Humidity
    00:00 +33°C° 0 mm 6 mps 751 mmHg 78%
    01:00 +33°C° 0 mm 6 mps 751 mmHg 78%
    02:00 +32°C° 0 mm 6 mps 750 mmHg 77%
    03:00 +32°C° 0 mm 5 mps 750 mmHg 77%
    04:00 +32°C° 0 mm 5 mps 750 mmHg 77%
    05:00 +32°C° 0 mm 5 mps 750 mmHg 78%
    06:00 +32°C° 0 mm 5 mps 750 mmHg 79%
    07:00 +34°C° 0 mm 5 mps 751 mmHg 71%
    08:00 +36°C° 0 mm 5 mps 751 mmHg 63%
    09:00 +39°C° 0 mm 5 mps 752 mmHg 55%
    10:00 +41°C° 0 mm 5 mps 752 mmHg 48%
    11:00 +42°C° 0 mm 5 mps 751 mmHg 42%
    12:00 +45°C° 0 mm 5 mps 751 mmHg 35%
    13:00 +41°C° 1.4 mm 5 mps 750 mmHg 43%
    14:00 +39°C° 1.4 mm 5 mps 750 mmHg 51%
    15:00 +35°C° 1.4 mm 5 mps 749 mmHg 58%
    16:00 +35°C° 2.2 mm 4 mps 749 mmHg 62%
    17:00 +34°C° 2.2 mm 4 mps 749 mmHg 66%
    18:00 +33°C° 2.2 mm 4 mps 749 mmHg 69%
    19:00 +33°C° 0.4 mm 4 mps 750 mmHg 72%
    20:00 +32°C° 0.4 mm 4 mps 751 mmHg 74%
    21:00 +30°C° 0.4 mm 4 mps 751 mmHg 76%
    22:00 +30°C° 0 mm 4 mps 751 mmHg 80%
    23:00 +30°C° 0 mm 4 mps 751 mmHg 83%

    4 June, Thursday

    Time Temperature Precipitation Wind Pressure Humidity
    00:00 +30°C° 0 mm 5 mps 751 mmHg 87%
    01:00 +30°C° 0 mm 4 mps 751 mmHg 88%
    02:00 +30°C° 0 mm 4 mps 751 mmHg 88%
    03:00 +30°C° 0 mm 4 mps 750 mmHg 88%
    04:00 +30°C° 0.1 mm 3 mps 751 mmHg 88%
    05:00 +30°C° 0.1 mm 3 mps 751 mmHg 88%
    06:00 +30°C° 0.1 mm 3 mps 751 mmHg 88%
    07:00 +33°C° 0 mm 3 mps 752 mmHg 79%
    08:00 +35°C° 0 mm 4 mps 752 mmHg 70%
    09:00 +37°C° 0 mm 4 mps 752 mmHg 61%
    10:00 +40°C° 0 mm 4 mps 752 mmHg 52%
    11:00 +42°C° 0 mm 4 mps 752 mmHg 44%
    12:00 +44°C° 0 mm 4 mps 751 mmHg 35%
    13:00 +42°C° 0.2 mm 5 mps 751 mmHg 39%
    14:00 +41°C° 0.2 mm 5 mps 750 mmHg 43%
    15:00 +40°C° 0.2 mm 5 mps 749 mmHg 46%
    16:00 +36°C° 1.8 mm 6 mps 749 mmHg 56%
    17:00 +34°C° 1.8 mm 6 mps 749 mmHg 65%
    18:00 +32°C° 1.8 mm 6 mps 749 mmHg 74%
    19:00 +32°C° 0.4 mm 5 mps 750 mmHg 75%
    20:00 +32°C° 0.4 mm 5 mps 750 mmHg 76%
    21:00 +30°C° 0.4 mm 4 mps 751 mmHg 77%
    22:00 +32°C° 0 mm 4 mps 751 mmHg 81%
    23:00 +32°C° 0 mm 4 mps 751 mmHg 84%

    5 June, Friday

    Time Temperature Precipitation Wind Pressure Humidity
    00:00 +32°C° 0 mm 4 mps 751 mmHg 87%
    01:00 +30°C° 0 mm 4 mps 751 mmHg 87%
    02:00 +30°C° 0 mm 3 mps 751 mmHg 88%
    03:00 +30°C° 0 mm 3 mps 750 mmHg 88%
    04:00 +30°C° 0 mm 3 mps 751 mmHg 88%
    05:00 +30°C° 0 mm 3 mps 751 mmHg 88%
    06:00 +30°C° 0 mm 3 mps 751 mmHg 87%
    07:00 +33°C° 0 mm 3 mps 751 mmHg 78%
    08:00 +35°C° 0 mm 4 mps 751 mmHg 68%
    09:00 +36°C° 0 mm 4 mps 752 mmHg 59%
    10:00 +39°C° 0 mm 5 mps 751 mmHg 52%
    11:00 +41°C° 0 mm 5 mps 751 mmHg 45%
    12:00 +43°C° 0 mm 5 mps 751 mmHg 38%
    13:00 +43°C° 0 mm 4 mps 750 mmHg 38%
    14:00 +43°C° 0 mm 4 mps 750 mmHg 38%
    15:00 +43°C° 0 mm 3 mps 749 mmHg 38%
    16:00 +41°C° 0 mm 4 mps 749 mmHg 45%
    17:00 +39°C° 0 mm 5 mps 748 mmHg 52%
    18:00 +38°C° 0 mm 6 mps 748 mmHg 59%
    19:00 +36°C° 0 mm 6 mps 749 mmHg 66%
    20:00 +34°C° 0 mm 6 mps 749 mmHg 72%
    21:00 +33°C° 0 mm 6 mps 749 mmHg 79%
    22:00 +33°C° 0 mm 6 mps 750 mmHg 79%
    23:00 +32°C° 0 mm 6 mps 750 mmHg 80%
    Show more